Weather History for Decatur, AL

Change the Weather History Date:

Tuesday, January 1, 2013

  Actual Average Record
Temperature  
Mean Temperature 46 °F -  
Max Temperature 52 °F 49 °F 78 °F (1952)
Min Temperature 39 °F 32 °F 7 °F (1977)
Degree Days  
Heating Degree Days 20    
Moisture  
Dew Point 47 °F    
Average Humidity 97    
Maximum Humidity 100    
Minimum Humidity 83    
Precipitation  
Precipitation 1.38 in - - ()
Sea Level Pressure  
Sea Level Pressure 30.05 in    
Wind  
Wind Speed 5 mph (North)    
Max Wind Speed 15 mph    
Max Gust Speed 17 mph    
Visibility 5 miles    
Events      
Averages and records for this station are not official NWS values.
T = Trace of Precipitation, MM = Missing Value Source: NWS Daily Summary

Daily Weather History Graph

Daily Weather History Graph

Search for Another Location

Airport:

Trip Planner

Search our weather history database for the weather conditions in past years. The results will help you decide how hot, cold, wet, or windy it might be!

Date:

Astronomy

Jan. 01, 2013 Rise Set
Actual Time 6:54 AM CST 4:48 PM CST
Civil Twilight 6:27 AM CST 5:16 PM CST
Nautical Twilight 5:55 AM CST 5:47 PM CST
Astronomical Twilight 5:24 AM CST 6:18 PM CST
Moon 9:06 PM CST (1/1) 9:17 AM CST (1/1)
Length of Visible Light 10h 49m
Length of Day
9h 53m
Waning Gibbous, 83% of the Moon is Illuminated
Jan 1
Waning Gibbous
Jan 4
Last Quarter
Jan 11
New
Jan 18
First Quarter
Jan 26
Full

Hourly Weather History & Observations

Time (CST) Temp. Windchill Dew Point Humidity Pressure Visibility Wind Dir Wind Speed Gust Speed Precip Events Conditions
12:53 AM 48.9 °F - 44.1 °F 83% 30.03 in 10.0 mi SSE 5.8 mph - N/A   Overcast
1:53 AM 48.9 °F - 46.9 °F 93% 30.04 in 4.0 mi South 4.6 mph - 0.09 in   Overcast
2:28 AM 48.2 °F - 48.2 °F 100% 30.05 in 5.0 mi WNW 3.5 mph - 0.03 in   Overcast
2:53 AM 48.9 °F - 46.9 °F 93% 30.06 in 2.5 mi NW 6.9 mph - 0.08 in   Overcast
2:56 AM 48.2 °F - 48.2 °F 100% 30.07 in 2.5 mi NW 8.1 mph - 0.01 in   Overcast
3:04 AM 48.2 °F - 48.2 °F 100% 30.07 in 2.5 mi NW 8.1 mph - 0.03 in   Overcast
3:11 AM 48.2 °F - 48.2 °F 100% 30.07 in 2.5 mi NW 5.8 mph - 0.05 in   Overcast
3:20 AM 48.2 °F - 48.2 °F 100% 30.07 in 2.5 mi NW 3.5 mph - 0.08 in   Overcast
3:44 AM 48.2 °F - 48.2 °F 100% 30.07 in 2.0 mi Calm Calm - 0.17 in   Overcast
3:50 AM 48.2 °F - 48.2 °F 100% 30.07 in 1.8 mi Calm Calm - 0.19 in   Overcast
3:53 AM 48.0 °F - 48.0 °F 100% 30.07 in 1.8 mi Calm Calm - 0.21 in   Overcast
4:01 AM 48.2 °F - 48.2 °F 100% 30.07 in 1.8 mi NW 3.5 mph - 0.03 in   Overcast
4:10 AM 48.2 °F - 46.4 °F 93% 30.08 in 2.5 mi NNW 12.7 mph - 0.06 in   Overcast
4:18 AM 46.4 °F 42.4 °F 46.4 °F 100% 30.08 in 5.0 mi North 8.1 mph - 0.07 in   Overcast
4:29 AM 46.4 °F 44.3 °F 46.4 °F 100% 30.07 in 5.0 mi NNE 4.6 mph - 0.10 in   Overcast
4:38 AM 46.4 °F 44.3 °F 46.4 °F 100% 30.06 in 4.0 mi East 4.6 mph - 0.12 in   Overcast
4:53 AM 46.9 °F - 46.9 °F 100% 30.05 in 5.0 mi ESE 3.5 mph - 0.16 in   Overcast
5:53 AM 46.9 °F - 46.0 °F 97% 30.06 in 5.0 mi East 3.5 mph - 0.14 in   Overcast
6:53 AM 48.0 °F - 46.9 °F 96% 30.04 in 5.0 mi SE 4.6 mph - 0.09 in   Overcast
7:11 AM 48.2 °F - 48.2 °F 100% 30.05 in 5.0 mi Calm Calm - 0.03 in   Overcast
7:53 AM 48.0 °F - 48.0 °F 100% 30.05 in 4.0 mi Calm Calm - 0.05 in   Overcast
8:10 AM 48.2 °F - 48.2 °F 100% 30.04 in 2.5 mi ESE 3.5 mph - 0.02 in   Overcast
8:23 AM 48.2 °F - 48.2 °F 100% 30.05 in 3.0 mi ESE 3.5 mph - 0.03 in   Overcast
8:53 AM 48.9 °F - 48.0 °F 97% 30.03 in 2.5 mi SE 6.9 mph - 0.07 in   Overcast
9:03 AM 48.2 °F - 48.2 °F 100% 30.04 in 4.0 mi SE 5.8 mph - 0.01 in   Overcast
9:19 AM 48.2 °F - 48.2 °F 100% 30.05 in 4.0 mi Calm Calm - 0.02 in   Overcast
9:35 AM 50.0 °F - 48.2 °F 94% 30.06 in 3.0 mi Calm Calm - 0.04 in   Overcast
9:53 AM 50.0 °F - 48.9 °F 96% 30.07 in 3.0 mi Calm Calm - 0.06 in   Overcast
10:03 AM 50.0 °F - 50.0 °F 100% 30.06 in 3.0 mi Calm Calm - 0.01 in   Overcast
10:19 AM 50.0 °F - 48.2 °F 94% 30.06 in 4.0 mi Calm Calm - 0.03 in   Overcast
10:28 AM 50.0 °F - 48.2 °F 94% 30.06 in 4.0 mi Calm Calm - 0.03 in   Overcast
10:53 AM 50.0 °F - 48.9 °F 96% 30.05 in 3.0 mi SSE 3.5 mph - 0.07 in   Overcast
11:09 AM 50.0 °F - 50.0 °F 100% 30.06 in 2.5 mi Calm Calm - 0.03 in   Overcast
11:16 AM 50.0 °F - 50.0 °F 100% 30.05 in 3.0 mi SSE 3.5 mph - 0.04 in   Overcast
11:24 AM 50.0 °F - 50.0 °F 100% 30.04 in 2.5 mi SSE 3.5 mph - 0.06 in   Overcast
11:33 AM 50.0 °F - 50.0 °F 100% 30.02 in 1.5 mi SE 4.6 mph - 0.08 in   Overcast
11:43 AM 50.0 °F - 50.0 °F 100% 30.01 in 3.0 mi ESE 3.5 mph - 0.09 in   Overcast
11:53 AM 51.1 °F - 50.0 °F 96% 30.01 in 4.0 mi SE 4.6 mph - 0.10 in   Overcast
12:53 PM 51.1 °F - 51.1 °F 100% 29.99 in 5.0 mi Calm Calm - 0.04 in   Overcast
1:35 PM 51.8 °F - 51.8 °F 100% 30.00 in 4.0 mi NNW 4.6 mph - 0.04 in   Overcast
1:53 PM 52.0 °F - 51.1 °F 97% 30.00 in 4.0 mi NW 5.8 mph - 0.06 in   Overcast
2:53 PM 51.1 °F - 50.0 °F 96% 30.01 in 7.0 mi NNW 11.5 mph - 0.03 in   Overcast
3:31 PM 48.2 °F - 46.4 °F 93% 30.01 in 3.0 mi North 12.7 mph - 0.01 in   Overcast
3:45 PM 46.4 °F 41.5 °F 44.6 °F 93% 30.00 in 5.0 mi North 10.4 mph - 0.01 in   Overcast
3:53 PM 46.9 °F - 45.0 °F 93% 30.01 in 5.0 mi North 11.5 mph - 0.01 in   Overcast
4:10 PM 46.4 °F 42.9 °F 44.6 °F 93% 30.02 in 7.0 mi North 6.9 mph - N/A   Overcast
4:53 PM 45.0 °F 39.7 °F 44.1 °F 97% 30.04 in 4.0 mi North 10.4 mph - 0.04 in   Overcast
5:30 PM 44.6 °F 40.7 °F 44.6 °F 100% 30.05 in 5.0 mi North 6.9 mph - 0.05 in   Overcast
5:53 PM 44.1 °F 40.1 °F 43.0 °F 96% 30.04 in 6.0 mi North 6.9 mph - 0.06 in   Overcast
6:11 PM 44.6 °F 42.2 °F 42.8 °F 93% 30.04 in 10.0 mi North 4.6 mph - 0.01 in   Overcast
6:20 PM 44.6 °F 40.7 °F 42.8 °F 93% 30.05 in 10.0 mi North 6.9 mph - 0.01 in   Overcast
6:53 PM 44.1 °F 41.5 °F 42.1 °F 93% 30.04 in 8.0 mi North 4.6 mph - 0.02 in   Overcast
7:41 PM 42.8 °F - 42.8 °F 100% 30.05 in 10.0 mi Calm Calm - N/A   Overcast
7:53 PM 43.0 °F - 42.1 °F 97% 30.05 in 10.0 mi Calm Calm - N/A   Overcast
8:17 PM 42.8 °F 37.0 °F 42.8 °F 100% 30.08 in 10.0 mi NW 10.4 mph - N/A   Overcast
8:25 PM 42.8 °F 35.8 °F 42.8 °F 100% 30.08 in 10.0 mi NNW 13.8 mph - N/A   Overcast
8:53 PM 42.1 °F 34.5 °F 39.9 °F 92% 30.08 in 10.0 mi NNW 15.0 mph - N/A   Overcast
9:53 PM 41.0 °F 33.9 °F 39.0 °F 93% 30.10 in 10.0 mi North 12.7 mph 17.3 mph N/A   Overcast
10:53 PM 39.9 °F 33.9 °F 37.9 °F 93% 30.13 in 6.0 mi NNW 9.2 mph - N/A   Overcast
11:53 PM 39.0 °F 34.0 °F 37.9 °F 96% 30.12 in 5.0 mi North 6.9 mph - N/A   Overcast